| time (UTC) | temp C | wind direction | speed KPH | gust KPH | rain 1hr cm | rain 24hr cm | rain mn cm | humidity % | barometer mb |
| 20260904145217 | 24 | 217 | 1.6 | 11.3 | 0.00 | 0.00 | 0.00 | 73 | 1009.6 |
| 20260904144217 | 23 | 79 | 1.6 | 11.3 | 0.00 | 0.00 | 0.00 | 71 | 1009.6 |
| 20260904143218 | 23 | 91 | 1.6 | 9.7 | 0.00 | 0.00 | 0.00 | 69 | 1009.6 |
| 20260904142212 | 23 | 75 | 3.2 | 9.7 | 0.00 | 0.00 | 0.00 | 70 | 1009.7 |
| 20260904141214 | 23 | 83 | 1.6 | 9.7 | 0.00 | 0.00 | 0.00 | 65 | 1009.8 |
| 20260904140215 | 22 | 105 | 1.6 | 8.0 | 0.00 | 0.00 | 0.00 | 61 | 1009.9 |
| 20260904135214 | 22 | 285 | 1.6 | 4.8 | 0.00 | 0.00 | 0.00 | 54 | 1010.0 |
| 20260904134218 | 21 | 75 | 1.6 | 8.0 | 0.00 | 0.00 | 0.00 | 53 | 1009.8 |
| 20260904134212 | 21 | 52 | 1.6 | 8.0 | 0.00 | 0.00 | 0.00 | 53 | 1009.8 |
| 20260904132212 | 21 | 78 | 0.0 | 4.8 | 0.00 | 0.00 | 0.00 | 54 | 1009.8 |
| 20260904131213 | 21 | 324 | 0.0 | 1.6 | 0.00 | 0.00 | 0.00 | 54 | 1009.8 |
| 20260904130716 | 21 | 232 | 0.0 | 1.6 | 0.00 | 0.03 | 0.00 | 55 | 1009.8 |
| 20260904125215 | 21 | 231 | 0.0 | 1.6 | 0.00 | 0.03 | 0.00 | 55 | 1009.9 |
| 20260904124713 | 20 | 298 | 0.0 | 3.2 | 0.00 | 0.08 | 0.00 | 55 | 1009.9 |
| 20260904123712 | 20 | 22 | 0.0 | 0.0 | 0.00 | 0.10 | 0.00 | 56 | 1009.9 |
| 20260904122209 | 20 | 23 | 0.0 | 0.0 | 0.00 | 0.10 | 0.00 | 56 | 1009.9 |
| 20260904121209 | 20 | 23 | 0.0 | 0.0 | 0.00 | 0.10 | 0.00 | 56 | 1010.1 |
| 20260904120208 | 19 | 23 | 0.0 | 0.0 | 0.00 | 0.13 | 0.00 | 57 | 1010.1 |
| 20260904115215 | 18 | 22 | 0.0 | 0.0 | 0.00 | 0.25 | 0.00 | 57 | 1010.2 |
| 20260904115209 | 18 | 23 | 0.0 | 0.0 | 0.00 | 0.15 | 0.00 | 57 | 1010.2 |
| 20260904113208 | 18 | 22 | 0.0 | 0.0 | 0.00 | 0.25 | 0.00 | 57 | 1010.1 |
| 20260904112208 | 18 | 22 | 0.0 | 0.0 | 0.00 | 0.25 | 0.00 | 57 | 1010.0 |
| 20260904111204 | 18 | 22 | 0.0 | 0.0 | 0.00 | 0.25 | 0.00 | 57 | 1010.0 |
| 20260904110205 | 18 | 22 | 0.0 | 0.0 | 0.00 | 0.25 | 0.00 | 57 | 1010.0 |
| 20260904105203 | 18 | 22 | 0.0 | 0.0 | 0.00 | 0.25 | 0.00 | 57 | 1009.9 |
| 20260904104203 | 18 | 22 | 0.0 | 0.0 | 0.00 | 0.25 | 0.00 | 57 | 1009.9 |
| 20260904103204 | 18 | 22 | 0.0 | 0.0 | 0.00 | 0.25 | 0.00 | 57 | 1009.9 |
| 20260904102704 | 18 | 22 | 0.0 | 0.0 | 0.00 | 0.25 | 0.00 | 58 | 1009.8 |
| 20260904101704 | 17 | 23 | 0.0 | 0.0 | 0.00 | 0.30 | 0.00 | 58 | 1009.8 |
| 20260904100204 | 17 | 23 | 0.0 | 0.0 | 0.00 | 0.53 | 0.00 | 58 | 1009.7 |
| 20260904095202 | 17 | 23 | 0.0 | 0.0 | 0.00 | 0.58 | 0.00 | 58 | 1009.6 |
| 20260904094156 | 17 | 22 | 0.0 | 0.0 | 0.00 | 0.66 | 0.00 | 58 | 1009.6 |
| 20260904093157 | 17 | 22 | 0.0 | 0.0 | 0.00 | 0.66 | 0.00 | 58 | 1009.6 |
| 20260904092157 | 17 | 22 | 0.0 | 0.0 | 0.00 | 0.69 | 0.00 | 58 | 1009.5 |
| 20260904091158 | 17 | 22 | 0.0 | 0.0 | 0.00 | 0.69 | 0.00 | 58 | 1009.5 |
| 20260904090157 | 17 | 22 | 0.0 | 0.0 | 0.00 | 0.71 | 0.00 | 57 | 1009.6 |
| 20260904085158 | 17 | 22 | 0.0 | 1.6 | 0.00 | 0.71 | 0.00 | 57 | 1009.7 |
| 20260904084156 | 17 | 23 | 0.0 | 0.0 | 0.00 | 0.71 | 0.00 | 57 | 1009.7 |
| 20260904083156 | 17 | 22 | 0.0 | 0.0 | 0.00 | 0.71 | 0.00 | 57 | 1009.7 |
| 20260904082156 | 17 | 23 | 0.0 | 0.0 | 0.00 | 0.71 | 0.00 | 57 | 1009.7 |
| 20260904081652 | 17 | 23 | 0.0 | 0.0 | 0.00 | 0.74 | 0.00 | 57 | 1009.7 |
| 20260904080152 | 17 | 23 | 0.0 | 0.0 | 0.00 | 0.74 | 0.00 | 57 | 1009.6 |
| 20260904075151 | 18 | 23 | 0.0 | 0.0 | 0.00 | 0.74 | 0.00 | 57 | 1009.8 |
| 20260904074150 | 18 | 23 | 0.0 | 0.0 | 0.00 | 0.74 | 0.00 | 57 | 1009.8 |
| 20260904073152 | 18 | 23 | 0.0 | 0.0 | 0.00 | 0.74 | 0.00 | 57 | 1010.0 |
| 20260904072153 | 18 | 23 | 0.0 | 0.0 | 0.00 | 0.74 | 0.00 | 57 | 1010.1 |
| 20260904071152 | 18 | 23 | 0.0 | 0.0 | 0.00 | 0.74 | 0.00 | 57 | 1010.2 |
| 20260904070152 | 18 | 23 | 0.0 | 0.0 | 0.00 | 0.74 | 0.00 | 57 | 1010.3 |
| 20260904065149 | 18 | 23 | 0.0 | 0.0 | 0.00 | 0.74 | 0.00 | 57 | 1010.5 |
| 20260904064144 | 18 | 23 | 0.0 | 0.0 | 0.00 | 0.74 | 0.00 | 57 | 1010.5 |
| 20260904063143 | 18 | 23 | 0.0 | 0.0 | 0.00 | 0.74 | 0.00 | 57 | 1010.5 |
| 20260904062143 | 18 | 22 | 0.0 | 0.0 | 0.00 | 0.74 | 0.00 | 57 | 1010.5 |
| 20260904061156 | 18 | 22 | 0.0 | 0.0 | 0.00 | 0.74 | 0.00 | 56 | 1010.6 |
| 20260904060145 | 18 | 23 | 0.0 | 0.0 | 0.00 | 0.74 | 0.00 | 56 | 1010.4 |
| 20260904055143 | 18 | 23 | 0.0 | 0.0 | 0.00 | 0.74 | 0.00 | 56 | 1010.6 |
| 20260904054145 | 18 | 23 | 0.0 | 0.0 | 0.00 | 0.74 | 0.00 | 56 | 1010.7 |
| 20260904053143 | 18 | 23 | 0.0 | 0.0 | 0.00 | 0.74 | 0.00 | 56 | 1010.8 |
| 20260904052144 | 19 | 23 | 0.0 | 0.0 | 0.00 | 0.74 | 0.00 | 56 | 1011.0 |
| 20260904051137 | 19 | 23 | 0.0 | 0.0 | 0.00 | 0.74 | 0.00 | 56 | 1011.0 |
| 20260904050149 | 19 | 23 | 0.0 | 0.0 | 0.00 | 0.74 | 0.00 | 56 | 1011.3 |
| 20260904045639 | 19 | 22 | 0.0 | 0.0 | 0.00 | 0.74 | 0.00 | 56 | 1011.4 |
| 20260904044139 | 19 | 22 | 0.0 | 0.0 | 0.00 | 0.74 | 0.00 | 56 | 1011.4 |
| 20260904043137 | 19 | 23 | 0.0 | 0.0 | 0.00 | 0.74 | 0.00 | 56 | 1011.6 |
| 20260904042637 | 19 | 23 | 0.0 | 0.0 | 0.00 | 0.74 | 0.00 | 56 | 1011.6 |
| 20260904041138 | 19 | 23 | 0.0 | 0.0 | 0.00 | 0.74 | 0.00 | 56 | 1011.6 |
| 20260904040138 | 19 | 20 | 0.0 | 0.0 | 0.00 | 0.74 | 0.00 | 56 | 1011.7 |
| 20260904035635 | 20 | 22 | 0.0 | 0.0 | 0.00 | 0.74 | 0.74 | 56 | 1011.8 |
| 20260904034128 | 20 | 20 | 0.0 | 0.0 | 0.00 | 0.74 | 0.74 | 56 | 1011.7 |
| 20260904033128 | 20 | 20 | 0.0 | 0.0 | 0.00 | 0.74 | 0.74 | 56 | 1011.9 |
| 20260904032130 | 20 | 36 | 0.0 | 0.0 | 0.00 | 0.74 | 0.74 | 56 | 1011.7 |
| 20260904031130 | 20 | 35 | 0.0 | 0.0 | 0.00 | 0.74 | 0.74 | 55 | 1011.5 |
| 20260904030129 | 20 | 36 | 0.0 | 0.0 | 0.00 | 0.74 | 0.74 | 55 | 1011.6 |
| 20260904025630 | 20 | 35 | 0.0 | 0.0 | 0.00 | 0.74 | 0.74 | 55 | 1011.7 |
| 20260904024129 | 20 | 35 | 0.0 | 0.0 | 0.00 | 0.74 | 0.74 | 55 | 1011.9 |
| 20260904023630 | 20 | 35 | 0.0 | 0.0 | 0.00 | 0.74 | 0.74 | 55 | 1011.9 |
| 20260904022631 | 20 | 36 | 0.0 | 0.0 | 0.00 | 0.74 | 0.74 | 55 | 1012.1 |
| 20260904021127 | 20 | 35 | 0.0 | 0.0 | 0.00 | 0.74 | 0.74 | 55 | 1011.9 |
| 20260904020127 | 21 | 35 | 0.0 | 0.0 | 0.00 | 0.74 | 0.74 | 55 | 1012.1 |
| 20260904015128 | 21 | 35 | 0.0 | 0.0 | 0.00 | 0.74 | 0.74 | 55 | 1012.2 |
| 20260904014629 | 21 | 36 | 0.0 | 0.0 | 0.00 | 0.74 | 0.74 | 55 | 1012.5 |
| 20260904013130 | 21 | 35 | 0.0 | 0.0 | 0.00 | 0.74 | 0.74 | 55 | 1012.6 |
| 20260904012128 | 21 | 35 | 0.0 | 0.0 | 0.00 | 0.74 | 0.74 | 55 | 1012.6 |
| 20260904011126 | 21 | 35 | 0.0 | 0.0 | 0.00 | 0.74 | 0.74 | 55 | 1012.6 |
| 20260904010124 | 21 | 35 | 0.0 | 0.0 | 0.00 | 0.74 | 0.74 | 55 | 1012.4 |
| 20260904005126 | 21 | 36 | 0.0 | 0.0 | 0.00 | 0.74 | 0.74 | 55 | 1012.2 |
| 20260904004125 | 21 | 35 | 0.0 | 0.0 | 0.00 | 0.74 | 0.74 | 56 | 1012.2 |
| 20260904003125 | 21 | 35 | 0.0 | 0.0 | 0.00 | 0.74 | 0.74 | 56 | 1012.0 |
| 20260904002126 | 21 | 35 | 0.0 | 0.0 | 0.00 | 0.74 | 0.74 | 56 | 1011.9 |
| 20260904001126 | 21 | 36 | 0.0 | 0.0 | 0.00 | 0.74 | 0.74 | 56 | 1011.7 |
| 20260904000627 | 22 | 35 | 0.0 | 0.0 | 0.00 | 0.74 | 0.74 | 57 | 1011.7 |
| 20260903235626 | 22 | 36 | 0.0 | 0.0 | 0.00 | 0.74 | 0.74 | 57 | 1011.6 |
| 20260903234125 | 22 | 35 | 0.0 | 1.6 | 0.00 | 0.74 | 0.74 | 57 | 1011.5 |
| 20260903233126 | 22 | 35 | 0.0 | 0.0 | 0.00 | 0.74 | 0.74 | 58 | 1011.6 |
| 20260903232118 | 22 | 36 | 0.0 | 0.0 | 0.00 | 0.74 | 0.74 | 59 | 1011.5 |
| 20260903231120 | 22 | 35 | 0.0 | 0.0 | 0.00 | 0.74 | 0.74 | 60 | 1011.6 |
| 20260903230120 | 23 | 36 | 0.0 | 0.0 | 0.00 | 0.74 | 0.74 | 61 | 1011.5 |
| 20260903225118 | 23 | 35 | 0.0 | 0.0 | 0.00 | 0.74 | 0.74 | 62 | 1011.7 |
| 20260903224119 | 23 | 35 | 0.0 | 0.0 | 0.00 | 0.74 | 0.74 | 62 | 1011.7 |
| 20260903223120 | 23 | 36 | 0.0 | 0.0 | 0.00 | 0.74 | 0.74 | 62 | 1011.9 |
| 20260903222118 | 23 | 35 | 0.0 | 3.2 | 0.00 | 0.74 | 0.74 | 62 | 1011.8 |
| 20260903221621 | 23 | 63 | 0.0 | 1.6 | 0.00 | 0.74 | 0.74 | 62 | 1011.9 |
| 20260903221235 | 23 | 60 | 0.0 | 1.6 | 0.00 | 0.74 | 0.74 | 64 | 1011.8 |
| 20260903215617 | 23 | 68 | 0.0 | 6.4 | 0.00 | 0.74 | 0.74 | 66 | 1011.7 |
| 20260903214115 | 23 | 248 | 0.0 | 4.8 | 0.00 | 0.74 | 0.74 | 66 | 1011.8 |
| 20260903213114 | 23 | 75 | 1.6 | 6.4 | 0.00 | 0.74 | 0.74 | 66 | 1011.8 |
| 20260903212114 | 23 | 273 | 0.0 | 3.2 | 0.00 | 0.74 | 0.74 | 65 | 1011.9 |
| 20260903211112 | 23 | 52 | 0.0 | 1.6 | 0.00 | 0.74 | 0.74 | 66 | 1011.7 |
| 20260903210116 | 23 | 253 | 0.0 | 3.2 | 0.00 | 0.74 | 0.74 | 67 | 1011.7 |
| 20260903205117 | 24 | 36 | 0.0 | 6.4 | 0.00 | 0.74 | 0.74 | 69 | 1011.9 |
| 20260903205113 | 23 | 96 | 0.0 | 4.8 | 0.00 | 0.74 | 0.74 | 69 | 1011.7 |
| 20260903203114 | 24 | 287 | 1.6 | 6.4 | 0.00 | 0.74 | 0.74 | 69 | 1011.8 |
| 20260903202108 | 25 | 52 | 0.0 | 4.8 | 0.00 | 0.74 | 0.74 | 68 | 1011.8 |
| 20260903201119 | 24 | 41 | 1.6 | 8.0 | 0.00 | 0.74 | 0.74 | 69 | 1011.7 |
| 20260903200109 | 25 | 97 | 1.6 | 9.7 | 0.00 | 0.74 | 0.74 | 72 | 1012.0 |
| 20260903195108 | 26 | 307 | 0.0 | 4.8 | 0.00 | 0.74 | 0.74 | 72 | 1012.0 |
| 20260903194108 | 26 | 191 | 0.0 | 1.6 | 0.00 | 0.74 | 0.74 | 71 | 1012.0 |
| 20260903193108 | 26 | 193 | 0.0 | 3.2 | 0.00 | 0.74 | 0.74 | 69 | 1012.1 |
| 20260903192109 | 25 | 134 | 0.0 | 1.6 | 0.00 | 0.74 | 0.74 | 70 | 1012.2 |
| 20260903191108 | 25 | 134 | 0.0 | 1.6 | 0.00 | 0.74 | 0.74 | 70 | 1012.4 |
| 20260903190109 | 25 | 131 | 0.0 | 1.6 | 0.00 | 0.74 | 0.74 | 70 | 1012.5 |
| 20260903185603 | 26 | 134 | 0.0 | 4.8 | 0.00 | 0.74 | 0.74 | 70 | 1012.6 |
| 20260903184103 | 26 | 101 | 0.0 | 3.2 | 0.00 | 0.74 | 0.74 | 71 | 1012.5 |
| 20260903183100 | 26 | 134 | 0.0 | 1.6 | 0.00 | 0.74 | 0.74 | 72 | 1012.7 |
| 20260903182102 | 26 | 135 | 0.0 | 3.2 | 0.00 | 0.74 | 0.74 | 69 | 1012.7 |
| 20260903181631 | 26 | 123 | 0.0 | 3.2 | 0.00 | 0.74 | 0.74 | 69 | 1012.8 |
| 20260903180112 | 26 | 145 | 1.6 | 3.2 | 0.00 | 0.74 | 0.74 | 70 | 1012.9 |
| 20260903175100 | 26 | 110 | 0.0 | 3.2 | 0.00 | 0.74 | 0.74 | 72 | 1012.9 |
| 20260903174102 | 26 | 164 | 0.0 | 1.6 | 0.00 | 0.74 | 0.74 | 73 | 1013.0 |
| 20260903173102 | 26 | 237 | 0.0 | 1.6 | 0.00 | 0.74 | 0.74 | 72 | 1013.2 |
| 20260903172058 | 26 | 236 | 0.0 | 1.6 | 0.00 | 0.74 | 0.74 | 71 | 1013.3 |
| 20260903171055 | 25 | 236 | 0.0 | 3.2 | 0.00 | 0.74 | 0.74 | 70 | 1013.1 |
| 20260903170106 | 25 | 246 | 0.0 | 1.6 | 0.00 | 0.74 | 0.74 | 69 | 1013.3 |
| 20260903165054 | 25 | 240 | 0.0 | 3.2 | 0.00 | 0.74 | 0.74 | 66 | 1013.1 |
| 20260903164054 | 25 | 248 | 0.0 | 1.6 | 0.00 | 0.74 | 0.74 | 65 | 1013.0 |
| 20260903163055 | 24 | 261 | 0.0 | 0.0 | 0.00 | 0.74 | 0.74 | 62 | 1013.0 |
| 20260903162054 | 24 | 262 | 0.0 | 1.6 | 0.00 | 0.74 | 0.74 | 57 | 1013.0 |
| 20260903161556 | 23 | 262 | 0.0 | 0.0 | 0.00 | 0.74 | 0.74 | 54 | 1013.1 |
| 20260903160107 | 23 | 302 | 0.0 | 3.2 | 0.00 | 0.74 | 0.74 | 52 | 1013.3 |
| 20260903155047 | 23 | 249 | 0.0 | 3.2 | 0.00 | 0.74 | 0.74 | 53 | 1013.3 |
| 20260903154549 | 23 | 243 | 0.0 | 0.0 | 0.00 | 0.74 | 0.74 | 52 | 1013.6 |
| 20260903153050 | 22 | 242 | 0.0 | 3.2 | 0.00 | 0.74 | 0.74 | 53 | 1013.6 |
| 20260903152046 | 22 | 263 | 0.0 | 1.6 | 0.00 | 0.74 | 0.74 | 53 | 1013.8 |
| 20260903151049 | 22 | 255 | 0.0 | 0.0 | 0.00 | 0.74 | 0.74 | 53 | 1013.9 |
| 20260903150100 | 22 | 208 | 0.0 | 0.0 | 0.00 | 0.74 | 0.74 | 53 | 1014.1 |